SCP
0 0 0 0 0 0 0 0 0 0 0 0 1 1 1 2 3 3 3 3 3 3 3 5 7 8 7 6 6 6 6 6 7 7 6 5 4 4 3 3 2 2 2 3
0 0 0 0 0 0 0 0 0 0 0 0 1 1 1 2 2 3 4 5 4 4 4 6 9 9 8 7 7 7 7 7 7 6 5 4 4 4 4 4 3 3 3 3
0 0 0 0 0 0 0 0 0 0 0 0 1 1 1 1 2 3 5 6 5 4 4 6 10 10 9 8 7 8 8 7 7 6 5 5 5 5 5 6 6 4 4 4
0 0 0 0 0 0 0 0 0 0 0 0 1 1 1 1 2 3 5 6 5 4 3 5 8 9 8 8 8 8 8 8 7 6 6 6 6 6 6 7 7 6 5 4
0 0 0 0 0 0 0 0 0 0 0 0 0 1 1 1 2 3 5 7 7 5 3 4 6 8 7 7 8 8 9 9 8 7 7 8 8 8 7 8 8 8 6 5
0 0 0 0 0 0 0 0 0 0 0 0 0 0 1 1 2 4 8 11 11 8 6 5 6 7 7 7 9 10 10 10 9 8 8 9 10 10 9 9 9 8 7 6
0 0 0 0 0 0 0 0 0 0 0 0 0 1 1 2 4 8 13 16 16 13 10 8 7 7 6 7 10 11 11 11 9 8 9 9 10 11 10 9 9 8 7 7
0 0 0 0 0 0 0 0 0 0 0 0 1 1 2 3 7 12 16 19 18 14 11 9 7 6 6 7 9 10 10 10 9 9 10 10 9 9 9 8 8 7 6 5
0 0 0 0 0 0 0 0 0 0 0 0 1 1 3 6 9 13 16 17 16 12 10 8 7 5 5 6 7 8 8 8 7 8 10 9 7 7 6 6 6 5 4 4
0 0 0 0 0 0 0 0 0 0 0 0 1 1 3 6 9 11 12 12 11 9 7 6 5 4 4 4 5 7 6 6 5 6 7 6 5 4 4 4 4 3 3 3
0 0 0 0 0 0 0 0 0 0 0 0 1 1 2 5 7 8 9 8 7 6 6 5 3 2 3 3 4 6 6 5 4 3 3 3 3 3 2 2 3 2 2 2
0 0 0 0 0 0 0 0 0 0 0 0 0 1 2 4 6 8 8 7 5 5 5 4 3 2 2 3 4 5 5 4 2 2 2 2 3 3 2 2 2 2 2 2
0 0 0 0 0 0 0 0 0 0 0 0 0 1 3 5 7 8 7 6 4 3 3 3 3 3 3 3 4 4 4 3 2 3 3 3 4 4 3 2 2 2 1 1
0 0 0 0 0 0 0 0 0 0 0 0 1 1 3 5 7 7 6 4 2 2 2 2 2 2 3 3 3 3 2 2 2 3 4 4 4 4 3 3 2 1 1 1
0 0 0 0 0 1 1 1 0 0 0 0 1 1 2 4 4 4 3 2 2 1 1 2 2 2 2 2 2 2 2 1 1 2 3 4 4 3 4 3 2 1 1 0
0 0 0 0 1 1 1 1 1 1 1 1 1 1 2 2 3 2 2 1 1 1 2 2 2 2 1 1 1 2 2 1 1 1 2 3 3 3 3 3 2 1 1 1
0 0 0 1 1 1 1 0 1 1 1 1 1 1 1 2 2 1 1 1 1 2 2 3 3 2 1 1 1 2 2 1 1 1 1 3 4 4 3 3 2 1 1 1
0 0 0 0 1 1 1 0 1 1 1 1 1 1 2 2 2 1 1 1 1 2 3 3 3 2 1 1 1 2 2 2 1 1 1 3 4 4 3 2 1 1 1 1
0 0 0 0 0 0 0 1 1 2 1 1 1 1 2 2 2 1 1 1 1 2 3 3 2 2 1 1 1 1 1 1 1 1 1 2 3 3 2 1 1 1 1 1
0 0 0 0 0 0 1 1 2 1 1 1 1 2 2 2 1 1 1 1 1 2 3 3 2 1 1 0 0 1 1 1 1 1 1 2 3 3 1 1 1 1 1 0
0 0 0 0 0 1 1 1 1 1 0 0 1 1 2 2 2 2 3 3 3 3 3 2 2 1 1 0 0 0 1 1 1 1 1 3 3 2 1 1 1 1 0 0
0 0 0 0 0 1 1 1 1 1 0 0 1 1 1 2 3 5 6 6 5 4 3 2 1 1 0 0 0 0 0 0 0 1 2 3 3 2 2 1 1 1 0 0
0 0 0 0 0 1 1 1 1 0 0 0 1 1 1 2 4 7 8 7 6 4 3 2 1 1 1 1 1 0 0 0 0 1 2 3 3 2 2 1 1 1 0 0
0 0 0 0 0 0 0 1 0 0 1 1 1 1 1 2 3 6 8 7 6 4 2 2 3 2 2 2 1 1 0 0 0 1 2 2 2 2 2 1 1 0 0 0
1 0 0 1 1 1 1 0 0 1 1 2 2 2 2 2 2 4 5 6 4 3 3 3 4 3 3 3 2 1 1 1 1 1 1 2 2 2 1 1 0 0 0 0
0 1 1 1 2 2 1 0 0 1 2 2 3 3 3 2 2 3 4 4 3 2 3 3 3 3 3 2 2 1 1 1 1 1 1 1 1 1 1 0 0 0 0 0
Wind_Speed
3 3 5 8 8 8 6 5 7 8 6 2 4 5 7 6 5 7 7 7 8 9 8 8 8 8 8 7 7 7 7 5 4 3 3 2 2 1 1 1 2 2 2 2
2 5 11 8 7 6 7 6 7 7 5 2 3 5 4 3 6 7 8 7 7 5 4 5 7 8 8 9 8 8 7 6 5 4 3 3 3 2 2 1 1 2 2 2
8 9 7 7 8 8 7 7 7 6 4 2 2 3 3 2 0 2 4 5 6 8 8 6 6 7 8 8 8 8 7 6 5 5 3 3 2 2 2 1 0 1 1 2
7 9 7 7 8 7 7 8 5 3 1 3 2 2 6 3 0 2 2 4 5 6 6 6 6 7 8 8 8 7 7 6 5 5 5 5 4 2 2 1 1 0 0 1
7 5 4 7 9 7 8 6 3 2 2 1 1 2 6 2 1 2 3 4 4 5 6 6 6 7 6 6 7 7 6 5 5 5 5 5 3 2 1 1 1 1 0 0
8 6 6 8 8 6 4 2 4 4 4 1 4 3 5 3 5 3 2 3 4 5 5 6 5 6 6 6 5 5 5 4 4 5 5 5 5 3 3 2 2 1 1 1
6 7 6 4 3 3 3 5 4 5 4 5 4 3 5 5 3 5 6 5 5 5 6 7 7 6 5 5 5 5 6 4 3 4 4 4 5 5 5 4 3 2 1 1
3 7 5 3 6 5 3 9 8 5 5 5 2 2 4 3 1 4 6 7 7 6 6 7 6 6 5 5 5 5 5 4 3 3 3 3 3 3 2 3 2 2 2 2
4 6 5 4 3 7 4 4 8 7 3 1 2 2 3 4 4 5 6 6 6 6 6 6 6 5 5 5 4 5 5 4 3 2 2 2 2 2 2 2 2 1 1 1
6 4 5 4 2 1 6 6 5 5 4 3 3 3 3 3 3 4 4 5 5 5 5 5 5 5 4 4 4 4 5 4 3 3 2 2 2 2 3 2 2 2 1 1
3 3 4 3 1 2 1 2 4 4 5 5 3 5 5 8 8 8 7 6 5 5 6 5 5 4 4 4 3 4 4 4 3 3 2 2 1 2 2 2 2 2 1 1
2 4 2 5 3 2 3 4 5 5 3 4 4 6 3 5 6 7 7 6 5 4 5 5 5 5 4 4 4 4 3 3 2 2 1 1 1 2 2 1 1 1 1 1
3 5 2 5 6 4 2 1 3 5 4 4 4 5 2 3 3 4 6 6 6 5 5 4 5 4 4 4 4 4 3 3 2 2 2 1 1 1 1 1 1 1 1 1
5 4 6 7 5 2 1 2 1 4 3 3 5 5 2 2 3 3 4 5 6 5 5 5 4 3 3 4 4 3 3 2 2 1 1 1 1 1 1 2 1 1 1 2
5 3 2 3 3 1 1 3 2 1 4 6 6 6 7 7 6 6 6 6 6 5 5 4 4 3 3 4 3 3 2 1 1 1 1 1 1 1 0 0 1 1 1 2
3 3 1 1 1 1 2 5 3 1 2 3 4 4 3 4 4 5 6 7 6 5 5 5 4 4 4 4 4 3 2 1 2 1 1 1 0 1 0 1 1 1 1 2
2 3 3 1 2 2 3 4 2 1 1 3 4 5 3 4 5 7 7 7 7 6 5 5 4 4 4 5 5 4 3 2 1 1 1 1 0 1 1 2 1 1 2 2
4 3 3 1 2 2 4 1 2 2 1 1 1 2 4 6 5 5 6 7 6 5 5 4 4 4 4 3 4 4 3 2 1 1 1 1 1 1 2 1 2 2 2 2
4 5 3 3 2 2 2 2 1 0 2 2 1 1 1 2 3 0 3 4 6 6 5 4 4 4 4 4 4 4 3 3 2 1 2 2 1 1 2 2 3 2 2 2
3 4 4 3 3 4 4 5 3 2 2 3 1 2 2 3 2 3 3 2 3 3 3 3 3 3 4 4 4 4 3 3 3 3 3 2 2 2 3 3 3 2 2 3
4 3 2 2 3 3 4 5 3 2 4 4 1 3 4 3 5 4 3 2 3 3 3 3 4 4 4 4 4 4 3 3 4 3 2 2 2 2 3 3 2 2 2 2
2 2 1 1 2 5 4 2 1 4 3 2 2 2 2 2 1 3 3 3 3 3 3 4 4 3 3 4 5 4 4 4 3 3 2 2 2 3 2 2 2 2 1 1
1 4 3 3 4 4 2 2 3 2 1 2 2 2 2 1 1 2 3 3 3 4 3 3 4 3 2 3 5 5 4 3 3 2 2 2 2 2 2 2 2 2 1 1
2 1 2 1 2 2 1 1 2 1 2 2 2 2 2 3 3 3 3 3 3 2 3 3 4 3 2 2 3 4 3 3 3 3 2 2 2 2 2 2 2 2 2 2
2 1 1 1 3 3 2 2 3 3 3 3 2 2 3 4 4 3 3 3 3 2 2 3 4 3 2 2 2 2 2 3 3 3 3 2 2 2 2 2 2 3 3 4
1 2 3 4 5 3 5 4 2 2 4 2 1 1 1 3 4 3 3 2 3 3 2 3 2 3 2 2 2 1 1 2 3 2 3 3 2 2 2 1 2 3 3 4
Wind_Direction
206 124 221 228 211 208 225 244 264 262 253 196 213 230 235 221 188 183 182 176 180 187 189 175 170 161 153 149 149 150 148 148 142 136 142 140 161 167 156 159 152 146 130 129
7 246 232 229 236 234 236 246 266 281 274 194 212 249 247 207 192 184 182 185 179 170 163 170 168 163 164 163 155 151 153 155 158 162 164 159 152 157 161 153 134 141 132 137
208 240 235 232 248 247 249 222 232 247 300 4 76 325 312 294 68 128 156 166 164 169 170 165 163 168 163 163 162 159 159 160 158 144 122 107 77 57 55 89 151 199 155 148
233 245 244 243 249 229 247 238 223 230 258 279 139 239 283 265 321 135 163 158 153 155 154 157 149 152 168 169 158 153 152 150 150 140 136 142 146 154 185 179 170 155 115 116
242 233 228 242 243 222 225 232 220 211 189 291 331 153 275 289 226 221 189 167 146 143 148 149 147 146 150 150 150 150 148 146 145 142 141 144 144 155 143 123 112 137 203 190
247 250 219 227 247 232 214 33 11 42 72 297 244 172 267 237 214 199 162 136 131 127 128 118 111 117 122 128 127 130 133 140 150 145 140 148 151 149 141 148 166 197 232 264
288 281 255 223 265 305 112 93 27 352 5 254 250 171 244 253 223 171 152 141 127 124 119 112 110 115 122 132 135 137 131 139 150 146 154 160 158 158 166 175 182 185 201 241
236 277 264 227 192 193 190 145 161 195 220 265 316 211 266 299 165 130 129 128 120 116 115 116 119 121 124 127 130 134 133 140 139 148 162 158 153 154 164 166 160 177 207 224
196 254 276 257 206 166 173 184 175 150 185 214 264 259 314 29 75 93 108 117 126 126 117 112 109 115 120 126 131 139 133 123 121 129 134 130 146 145 150 144 142 166 221 240
172 239 278 279 29 353 169 158 100 120 168 227 255 228 219 184 140 122 127 130 130 127 122 112 105 108 117 126 123 121 126 128 118 114 125 137 156 160 156 152 161 175 221 239
155 172 300 359 141 221 47 109 118 134 159 163 210 255 217 190 174 164 159 147 148 142 137 128 123 123 117 103 97 102 108 105 100 100 98 105 130 143 151 164 176 182 200 211
145 131 243 259 252 182 160 171 145 154 213 165 171 252 265 183 174 157 148 143 145 136 126 127 126 118 118 116 112 104 105 104 107 104 103 132 144 130 141 175 202 196 198 212
126 108 61 333 337 4 58 94 143 141 136 169 180 245 347 111 121 139 144 139 131 127 121 115 118 122 136 135 128 126 127 128 126 131 135 127 132 145 186 203 207 206 206 228
113 117 159 196 223 238 312 335 27 121 148 203 207 202 230 167 154 153 146 136 135 137 135 132 130 134 146 138 136 138 138 143 142 129 125 157 201 201 216 216 211 204 204 217
92 134 191 226 233 185 279 300 291 196 195 198 206 197 212 196 180 166 153 143 139 146 143 146 150 151 151 140 137 135 141 145 132 120 131 223 244 242 245 251 238 210 207 230
78 134 122 328 23 52 324 316 292 285 244 181 165 224 229 181 159 152 153 154 159 169 168 165 162 158 163 158 153 142 138 137 127 144 198 229 329 359 326 277 267 245 244 257
102 117 114 256 297 26 317 295 246 192 257 186 206 229 170 148 168 173 173 173 177 180 173 170 172 173 174 171 162 161 162 143 133 170 219 235 254 331 298 279 271 256 256 256
143 126 134 151 65 214 241 281 142 131 344 334 162 186 173 187 194 180 174 175 181 183 176 176 175 174 177 168 159 157 149 145 159 205 234 249 249 275 285 278 271 261 260 251
155 147 130 129 160 252 278 305 333 96 309 332 129 122 119 113 86 132 192 185 187 184 178 180 179 170 162 164 166 153 159 166 173 214 235 240 238 256 268 261 264 267 264 268
59 103 122 135 155 218 254 291 311 97 290 320 83 134 133 88 126 241 230 188 178 157 150 159 156 148 156 176 166 157 174 180 200 218 223 227 232 236 250 255 251 258 258 260
32 46 99 158 200 251 277 302 3 134 231 276 242 163 149 172 210 216 172 151 146 137 139 144 147 156 176 178 162 168 183 210 219 215 215 227 240 241 246 257 264 267 281 291
126 114 147 149 183 249 302 20 124 222 249 265 278 209 177 196 174 151 145 142 136 132 130 136 147 162 180 174 166 183 204 216 211 198 206 237 250 253 262 260 269 263 249 280
141 180 175 180 208 241 261 187 220 210 245 281 277 269 178 144 158 154 152 143 138 143 143 140 151 159 176 178 174 188 214 205 188 187 209 240 261 265 260 243 249 258 244 237
330 35 98 84 271 279 267 287 302 286 278 277 253 227 179 161 158 148 154 148 132 136 148 149 149 151 180 199 177 188 203 195 185 196 222 240 255 273 279 251 230 233 237 240
245 27 60 239 273 318 315 308 304 316 323 320 286 243 189 155 156 159 166 170 164 169 169 161 156 164 180 179 177 195 195 181 185 200 217 234 245 250 266 259 236 232 238 221
250 182 181 224 232 221 266 283 310 344 335 340 346 355 81 143 156 158 168 178 168 168 166 160 159 170 185 180 193 226 213 177 175 201 218 222 232 243 250 262 293 286 253 249